When you browse on this site, cookies collect data to enhance your experience and personalize the content and advertising you see.
Visit our Privacy Policy to learn more. By continuing to use the site, you agree to this use of cookies and data.
  • In Hungary
  • List of Countries
  • For 7 days
  • Water Temperature
  • Weather Map
  • News
  • Weather Widgets
  • user-avatar
    Login

    Hourly Weather Surrey

    Today, 17 November, Sunday

    Time Temperature Precipitation Wind Pressure Humidity
    00:00 +9°C° 1.1 mm 3 mps 759 mmHg 94%
    01:00 +9°C° 1.1 mm 3 mps 758 mmHg 94%
    02:00 +9°C° 1.2 mm 3 mps 758 mmHg 94%
    03:00 +9°C° 1.2 mm 3 mps 757 mmHg 93%
    04:00 +9°C° 1.2 mm 3 mps 757 mmHg 93%
    05:00 +9°C° 4.6 mm 3 mps 757 mmHg 94%
    06:00 +9°C° 4.6 mm 3 mps 757 mmHg 95%
    07:00 +8°C° 4.6 mm 4 mps 757 mmHg 96%
    08:00 +10°C° 1 mm 4 mps 757 mmHg 96%
    09:00 +10°C° 1 mm 4 mps 757 mmHg 95%
    10:00 +10°C° 1 mm 4 mps 757 mmHg 95%
    11:00 +11°C° 0.2 mm 4 mps 757 mmHg 94%
    12:00 +11°C° 0.2 mm 4 mps 758 mmHg 94%
    13:00 +11°C° 0.2 mm 4 mps 758 mmHg 94%
    14:00 +12°C° 0.1 mm 4 mps 758 mmHg 93%
    15:00 +12°C° 0.1 mm 4 mps 759 mmHg 93%
    16:00 +12°C° 0.1 mm 3 mps 759 mmHg 93%
    17:00 +11°C° 0 mm 3 mps 760 mmHg 94%
    18:00 +10°C° 0 mm 2 mps 760 mmHg 94%
    19:00 +11°C° 0 mm 1 mps 761 mmHg 94%
    20:00 +11°C° 0 mm 1 mps 761 mmHg 94%
    21:00 +10°C° 0 mm 1 mps 762 mmHg 94%
    22:00 +10°C° 0 mm 1 mps 762 mmHg 94%
    23:00 +10°C° 0 mm 1 mps 762 mmHg 94%

    Tomorrow, 18 November, Monday

    Time Temperature Precipitation Wind Pressure Humidity
    00:00 +10°C° 0 mm 1 mps 762 mmHg 94%
    01:00 +10°C° 0 mm 1 mps 761 mmHg 94%
    02:00 +10°C° 0 mm 1 mps 761 mmHg 95%
    03:00 +10°C° 0 mm 1 mps 760 mmHg 95%
    04:00 +9°C° 0 mm 1 mps 760 mmHg 95%
    05:00 +9°C° 0 mm 1 mps 759 mmHg 94%
    06:00 +9°C° 0 mm 1 mps 759 mmHg 94%
    07:00 +9°C° 0 mm 1 mps 758 mmHg 93%
    08:00 +9°C° 0 mm 1 mps 758 mmHg 91%
    09:00 +10°C° 0 mm 1 mps 757 mmHg 89%
    10:00 +11°C° 0 mm 1 mps 756 mmHg 87%
    11:00 +11°C° 0 mm 1 mps 756 mmHg 85%
    12:00 +12°C° 0 mm 1 mps 755 mmHg 83%
    13:00 +11°C° 0 mm 0 mps 754 mmHg 81%
    14:00 +12°C° 0 mm 1 mps 753 mmHg 84%
    15:00 +11°C° 0 mm 1 mps 753 mmHg 86%
    16:00 +11°C° 0 mm 1 mps 752 mmHg 89%
    17:00 +11°C° 0 mm 1 mps 751 mmHg 89%
    18:00 +10°C° 0 mm 1 mps 751 mmHg 88%
    19:00 +10°C° 0 mm 1 mps 750 mmHg 88%
    20:00 +10°C° 1.1 mm 1 mps 750 mmHg 91%
    21:00 +9°C° 1.1 mm 2 mps 750 mmHg 93%
    22:00 +9°C° 1.1 mm 2 mps 750 mmHg 96%
    23:00 +8°C° 0.9 mm 2 mps 750 mmHg 95%

    Day after tomorrow, 19 November, Tuesday

    Time Temperature Precipitation Wind Pressure Humidity
    00:00 +8°C° 0.9 mm 2 mps 750 mmHg 95%
    01:00 +8°C° 0.9 mm 2 mps 750 mmHg 95%
    02:00 +8°C° 0.1 mm 2 mps 751 mmHg 95%
    03:00 +8°C° 0.1 mm 2 mps 751 mmHg 95%
    04:00 +8°C° 0.1 mm 2 mps 752 mmHg 94%
    05:00 +7°C° 0 mm 2 mps 752 mmHg 94%
    06:00 +7°C° 0 mm 2 mps 753 mmHg 94%
    07:00 +7°C° 0 mm 2 mps 753 mmHg 94%
    08:00 +7°C° 0 mm 2 mps 754 mmHg 91%
    09:00 +9°C° 0 mm 1 mps 755 mmHg 88%
    10:00 +10°C° 0 mm 1 mps 755 mmHg 85%
    11:00 +10°C° 0 mm 2 mps 756 mmHg 83%
    12:00 +10°C° 0 mm 2 mps 756 mmHg 81%
    13:00 +11°C° 0 mm 3 mps 756 mmHg 79%
    14:00 +10°C° 0 mm 3 mps 757 mmHg 82%
    15:00 +9°C° 0 mm 3 mps 758 mmHg 84%
    16:00 +8°C° 0 mm 3 mps 758 mmHg 86%
    17:00 +8°C° 0 mm 3 mps 759 mmHg 86%
    18:00 +7°C° 0 mm 2 mps 760 mmHg 85%
    19:00 +6°C° 0 mm 2 mps 760 mmHg 85%
    20:00 +6°C° 0 mm 2 mps 761 mmHg 84%
    21:00 +6°C° 0 mm 2 mps 762 mmHg 83%
    22:00 +6°C° 0 mm 2 mps 762 mmHg 82%
    23:00 +5°C° 0 mm 2 mps 763 mmHg 81%

    20 November, Wednesday

    Time Temperature Precipitation Wind Pressure Humidity
    00:00 +5°C° 0 mm 2 mps 763 mmHg 80%
    01:00 +5°C° 0 mm 2 mps 763 mmHg 79%
    02:00 +4°C° 0 mm 2 mps 763 mmHg 78%
    03:00 +4°C° 0 mm 2 mps 764 mmHg 76%
    04:00 +4°C° 0 mm 2 mps 764 mmHg 75%
    05:00 +4°C° 0 mm 2 mps 764 mmHg 74%
    06:00 +3°C° 0 mm 2 mps 764 mmHg 73%
    07:00 +4°C° 0 mm 1 mps 764 mmHg 73%
    08:00 +5°C° 0 mm 1 mps 764 mmHg 69%
    09:00 +7°C° 0 mm 1 mps 763 mmHg 66%
    10:00 +8°C° 0 mm 1 mps 763 mmHg 63%
    11:00 +8°C° 0 mm 1 mps 763 mmHg 62%
    12:00 +9°C° 0 mm 1 mps 762 mmHg 60%
    13:00 +10°C° 0 mm 1 mps 762 mmHg 59%
    14:00 +9°C° 0 mm 1 mps 762 mmHg 63%
    15:00 +8°C° 0 mm 1 mps 762 mmHg 68%
    16:00 +7°C° 0 mm 1 mps 761 mmHg 72%
    17:00 +7°C° 0 mm 1 mps 761 mmHg 72%
    18:00 +6°C° 0 mm 1 mps 761 mmHg 71%
    19:00 +6°C° 0 mm 1 mps 761 mmHg 70%
    20:00 +5°C° 0 mm 1 mps 761 mmHg 69%
    21:00 +5°C° 0 mm 1 mps 761 mmHg 68%
    22:00 +5°C° 0 mm 1 mps 761 mmHg 67%
    23:00 +5°C° 0 mm 1 mps 761 mmHg 66%

    21 November, Thursday

    Time Temperature Precipitation Wind Pressure Humidity
    00:00 +4°C° 0 mm 1 mps 761 mmHg 65%
    01:00 +4°C° 0 mm 1 mps 761 mmHg 64%
    02:00 +4°C° 0 mm 1 mps 760 mmHg 63%
    03:00 +4°C° 0 mm 1 mps 760 mmHg 63%
    04:00 +4°C° 0 mm 1 mps 760 mmHg 62%
    05:00 +4°C° 0 mm 1 mps 760 mmHg 62%
    06:00 +3°C° 0 mm 1 mps 759 mmHg 62%
    07:00 +3°C° 0 mm 1 mps 759 mmHg 61%
    08:00 +4°C° 0 mm 1 mps 759 mmHg 59%
    09:00 +5°C° 0 mm 0 mps 759 mmHg 58%
    10:00 +6°C° 0 mm 0 mps 759 mmHg 56%
    11:00 +7°C° 0 mm 0 mps 758 mmHg 55%
    12:00 +7°C° 0 mm 0 mps 758 mmHg 54%
    13:00 +8°C° 0 mm 0 mps 757 mmHg 54%
    14:00 +7°C° 0 mm 0 mps 757 mmHg 59%
    15:00 +6°C° 0 mm 0 mps 757 mmHg 64%
    16:00 +5°C° 0 mm 0 mps 757 mmHg 69%
    17:00 +5°C° 0 mm 0 mps 757 mmHg 69%
    18:00 +5°C° 0 mm 0 mps 757 mmHg 68%
    19:00 +4°C° 0 mm 0 mps 757 mmHg 68%
    20:00 +4°C° 0 mm 0 mps 757 mmHg 67%
    21:00 +4°C° 0 mm 0 mps 757 mmHg 66%
    22:00 +4°C° 0 mm 0 mps 757 mmHg 65%
    23:00 +4°C° 0 mm 0 mps 758 mmHg 67%

    22 November, Friday

    Time Temperature Precipitation Wind Pressure Humidity
    00:00 +5°C° 0 mm 1 mps 758 mmHg 68%
    01:00 +5°C° 0 mm 1 mps 758 mmHg 70%
    02:00 +5°C° 0 mm 1 mps 758 mmHg 73%
    03:00 +5°C° 0 mm 1 mps 759 mmHg 75%
    04:00 +5°C° 0 mm 1 mps 759 mmHg 78%
    05:00 +5°C° 0 mm 1 mps 760 mmHg 80%
    06:00 +5°C° 0 mm 1 mps 760 mmHg 82%
    07:00 +5°C° 0 mm 1 mps 761 mmHg 84%
    08:00 +5°C° 0 mm 1 mps 761 mmHg 83%
    09:00 +6°C° 0 mm 1 mps 762 mmHg 82%
    10:00 +7°C° 0 mm 1 mps 763 mmHg 80%
    11:00 +7°C° 0 mm 1 mps 763 mmHg 77%
    12:00 +7°C° 0 mm 0 mps 763 mmHg 74%
    13:00 +8°C° 0 mm 0 mps 763 mmHg 71%
    14:00 +7°C° 0 mm 0 mps 763 mmHg 74%
    15:00 +6°C° 0 mm 0 mps 764 mmHg 78%
    16:00 +6°C° 0 mm 0 mps 764 mmHg 82%
    17:00 +5°C° 0 mm 0 mps 764 mmHg 84%
    18:00 +5°C° 0 mm 1 mps 765 mmHg 86%
    19:00 +5°C° 0 mm 1 mps 765 mmHg 89%
    20:00 +4°C° 0 mm 1 mps 766 mmHg 89%
    21:00 +4°C° 0 mm 1 mps 766 mmHg 89%
    22:00 +4°C° 0 mm 1 mps 766 mmHg 89%
    23:00 +4°C° 0 mm 1 mps 766 mmHg 89%
    Show more